Weather History for Alexandria, LA

Change the Weather History Date:

Monday, January 10, 2011

  Actual Average Record
Temperature  
Mean Temperature 35 °F 49 °F  
Max Temperature 37 °F 59 °F 81 °F (1907)
Min Temperature 33 °F 39 °F 10 °F (1962)
Degree Days  
Heating Degree Days 30 16  
Month to date heating degree days 180 160  
Since 1 July heating degree days 987 949  
Moisture  
Dew Point 32 °F    
Average Humidity 89    
Maximum Humidity 96    
Minimum Humidity 82    
Precipitation  
Precipitation 0.00 in 0.15 in 6.16 in (1925)
Month to date precipitation 0.24 1.48  
Year to date precipitation 0.24 1.48  
Snow  
Snow 0.00 in - 1.00 in (1973)
Month to date snowfall 0.0  
Since 1 July snowfall 0.0  
Snow Depth 0.00 in    
Sea Level Pressure  
Sea Level Pressure 30.13 in    
Wind  
Wind Speed 6 mph (North)    
Max Wind Speed 14 mph    
Max Gust Speed 17 mph    
Visibility 9 miles    
Events      
T = Trace of Precipitation, MM = Missing Value Source: NWS Daily Summary

Daily Weather History Graph

Daily Weather History Graph

Search for Another Location

Airport:

Trip Planner

Search our weather history database for the weather conditions in past years. The results will help you decide how hot, cold, wet, or windy it might be!

Date:

Astronomy

Jan. 10, 2011 Rise Set
Actual Time 7:10 AM CST 5:25 PM CST
Civil Twilight 6:43 AM CST 5:51 PM CST
Nautical Twilight 6:13 AM CST 6:21 PM CST
Astronomical Twilight 5:44 AM CST 6:51 PM CST
Moon 10:32 AM CST (1/10) 11:23 PM CST (1/10)
Length of Visible Light 11h 08m
Length of Day
10h 15m
Waxing Crescent, 34% of the Moon is Illuminated
Jan 10
Waxing Crescent
Jan 12
First Quarter
Jan 19
Full
Jan 26
Last Quarter
Feb 2
New

Hourly Weather History & Observations

Time (CST) Temp. Windchill Dew Point Humidity Pressure Visibility Wind Dir Wind Speed Gust Speed Precip Events Conditions
12:53 AM 34.0 °F 27.2 °F 32.0 °F 92% 30.00 in 5.0 mi North 8.1 mph - N/A   Overcast
1:53 AM 34.0 °F 28.8 °F 32.0 °F 92% 30.02 in 6.0 mi North 5.8 mph - N/A   Overcast
2:53 AM 34.0 °F 28.8 °F 30.9 °F 89% 30.03 in 10.0 mi NNE 5.8 mph - N/A   Overcast
3:53 AM 34.0 °F 28.8 °F 30.9 °F 89% 30.02 in 10.0 mi NNE 5.8 mph - N/A   Overcast
4:53 AM 34.0 °F 28.8 °F 30.9 °F 89% 30.01 in 10.0 mi NE 5.8 mph - N/A   Overcast
5:53 AM 34.0 °F 29.8 °F 30.9 °F 89% 30.04 in 10.0 mi NNE 4.6 mph - N/A   Overcast
6:53 AM 34.0 °F 29.8 °F 32.0 °F 92% 30.06 in 10.0 mi NNE 4.6 mph - N/A   Overcast
7:53 AM 34.0 °F 29.8 °F 32.0 °F 92% 30.09 in 7.0 mi NNE 4.6 mph - N/A   Overcast
8:53 AM 34.0 °F 28.0 °F 30.9 °F 89% 30.11 in 10.0 mi NNE 6.9 mph - N/A   Overcast
9:53 AM 34.0 °F 27.2 °F 30.9 °F 89% 30.12 in 10.0 mi ENE 8.1 mph - N/A   Overcast
10:53 AM 35.1 °F 30.1 °F 32.0 °F 89% 30.14 in 10.0 mi Variable 5.8 mph - N/A   Overcast
11:53 AM 36.0 °F 32.1 °F 32.0 °F 86% 30.12 in 10.0 mi NNE 4.6 mph - N/A   Overcast
12:53 PM 36.0 °F - 32.0 °F 86% 30.10 in 10.0 mi Calm Calm - N/A   Overcast
1:53 PM 37.0 °F 33.3 °F 32.0 °F 82% 30.09 in 10.0 mi NNW 4.6 mph - N/A   Overcast
2:53 PM 37.0 °F 34.5 °F 32.0 °F 82% 30.10 in 10.0 mi North 3.5 mph - N/A   Overcast
3:53 PM 37.0 °F 31.6 °F 32.0 °F 82% 30.13 in 10.0 mi NNE 6.9 mph - N/A   Overcast
4:53 PM 37.0 °F 33.3 °F 32.0 °F 82% 30.14 in 10.0 mi NNE 4.6 mph - N/A   Overcast
5:53 PM 36.0 °F 30.3 °F 32.0 °F 86% 30.16 in 10.0 mi NW 6.9 mph - N/A   Overcast
6:53 PM 36.0 °F 31.1 °F 32.0 °F 86% 30.18 in 10.0 mi NNW 5.8 mph - N/A   Overcast
7:53 PM 36.0 °F 30.3 °F 33.1 °F 89% 30.21 in 10.0 mi NW 6.9 mph - N/A   Overcast
8:53 PM 36.0 °F 30.3 °F 33.1 °F 89% 30.21 in 10.0 mi North 6.9 mph - N/A   Overcast
9:53 PM 35.1 °F 28.6 °F 32.0 °F 89% 30.25 in 10.0 mi NNW 8.1 mph - N/A   Overcast
10:53 PM 33.8 °F 26.4 °F 32.0 °F 93% 30.25 in 6.0 mi NNW 9.2 mph - N/A   Overcast
11:50 PM 33.8 °F 26.4 °F 30.2 °F 87% 30.27 in 10.0 mi NNW 9.2 mph - N/A   Overcast
11:53 PM 34.0 °F 27.2 °F 30.9 °F 89% 30.29 in 10.0 mi NNW 8.1 mph - N/A   Overcast